Location: North Fort Myers
(26.6673°N, 81.8801°W)
Time: 13:22:07
(UTC+00:00)

Envisat - Pass Details

Date: 20 August 2022
Orbit: 764 x 765 km, 98.2° (Epoch: 26 September)

Event Time Altitude Azimuth Distance (km) Brightness Sun altitude
Rises 09:45:21 0° 11° (N) 3,229 6.7 -17.0°
Reaches altitude 10° 09:47:40 10° 11° (N) 2,300 5.9 -16.5°
Maximum altitude 09:52:44 87° 284° (WNW) 768 2.9 -15.5°
Drops below altitude 10° 09:57:48 10° 194° (SSW) 2,289 5.1 -14.4°
Enters shadow 09:59:09 - 194° (SSW) 2,831 5.6 -14.1°
